Wind_Speed
97 91 83 81 76 68 69 65 63 59 58 57 55 56 57 56 56 57 57 56 56 56 60 62 64 67 69 71 74 77 80 84 87 90 93 96 98 81 72 65 59 57 53 49
98 93 85 79 79 75 73 69 64 64 61 60 59 59 59 59 60 60 60 60 60 61 63 66 69 71 73 76 80 82 84 87 89 92 95 97 82 71 64 58 55 50 45 42
91 88 86 85 81 77 74 69 69 68 64 62 61 62 61 61 62 62 63 63 64 66 68 69 72 74 78 80 83 84 87 90 92 94 97 83 70 64 59 53 48 45 41 38
88 87 84 81 80 79 77 75 74 71 68 65 65 63 63 64 64 63 64 65 67 69 71 73 75 78 80 83 86 88 91 93 93 96 82 68 62 55 49 46 43 39 36 35
80 79 78 76 77 75 77 74 73 72 71 67 65 64 63 65 67 68 66 67 69 71 74 76 78 81 83 86 89 91 93 92 94 83 66 58 50 43 40 38 36 32 30 29
77 73 72 74 74 72 73 72 72 71 69 64 63 65 62 67 69 68 68 70 72 76 78 81 84 87 89 90 92 92 91 91 80 66 54 45 37 35 32 28 26 25 23 22
75 70 69 68 67 67 68 69 67 64 64 62 62 63 65 68 69 70 72 72 76 79 83 86 86 89 91 91 91 90 89 74 64 51 40 34 30 28 24 22 22 21 20 19
74 68 63 62 63 63 62 61 60 59 60 61 61 62 63 66 69 71 72 75 80 84 87 87 90 90 89 88 88 83 69 60 50 39 33 30 27 27 25 23 22 22 22 21
69 65 63 61 58 57 58 58 58 58 59 59 61 63 65 70 74 77 79 81 83 85 88 90 89 87 85 82 70 62 55 50 41 36 33 33 32 31 28 28 27 26 24 23
65 67 66 65 63 63 62 60 60 60 59 60 63 66 71 77 80 81 83 83 85 88 89 86 82 77 67 61 52 49 45 40 38 38 39 38 36 36 36 34 33 32 30 29
59 64 67 67 67 67 65 65 65 64 65 67 69 72 76 79 82 83 84 85 87 84 81 72 61 55 52 48 48 46 45 44 44 45 44 44 44 44 43 43 41 39 38 37
51 58 62 65 66 67 68 69 70 69 71 73 77 75 81 81 81 79 78 80 77 66 55 53 52 51 52 51 52 51 49 51 51 50 50 50 50 50 50 50 49 48 47 46
40 49 55 60 64 66 68 69 70 71 72 73 73 72 71 72 68 60 59 55 54 55 57 58 58 59 59 58 59 59 60 61 61 60 60 60 60 59 59 59 58 57 57 56
10 19 27 34 41 45 49 49 53 53 54 52 52 53 54 51 49 55 56 58 61 62 64 65 67 67 67 68 69 69 70 71 71 72 72 72 71 70 70 69 69 68 67 67
12 14 17 19 24 27 31 36 38 40 46 47 54 56 60 59 59 60 63 63 66 68 70 73 74 74 74 74 76 77 79 80 81 81 81 82 83 83 82 80 79 79 78 78
19 22 25 28 31 33 38 44 46 49 53 54 57 61 62 66 68 68 69 71 74 76 79 80 82 84 85 85 86 87 88 87 89 89 89 90 91 92 92 92 91 91 89 87
27 30 33 37 40 43 45 52 54 58 61 63 64 64 66 69 71 72 75 78 80 84 88 89 90 90 92 93 94 94 95 97 98 100 101 101 101 102 103 102 103 102 101 100
32 27 30 35 40 41 47 50 54 58 62 67 70 71 72 75 75 75 75 78 81 81 82 86 88 90 92 94 96 98 102 106 106 107 109 110 111 112 112 112 113 113 113 112
43 47 48 50 53 58 59 61 64 66 66 68 71 75 79 85 86 86 84 88 90 92 93 94 96 97 98 102 103 106 108 110 111 113 114 114 114 115 115 116 118 120 120 119
57 59 59 59 60 65 66 72 73 75 74 80 82 84 86 86 91 95 94 96 99 101 102 101 102 106 110 111 113 115 118 119 118 118 116 118 120 120 119 120 120 121 122 122
64 65 64 70 73 72 75 82 83 83 82 84 89 94 96 97 99 100 100 102 104 105 106 109 112 115 118 120 121 123 125 127 126 123 121 120 120 121 121 121 120 122 123 121
67 71 73 79 81 83 86 94 94 91 90 92 97 97 101 104 105 106 107 106 107 110 112 114 115 117 121 126 129 131 133 134 132 128 124 121 121 121 120 121 121 122 122 122
73 77 82 86 90 95 98 100 104 101 101 102 100 101 107 112 112 110 110 113 116 115 117 121 124 126 130 134 137 137 134 131 125 122 120 118 118 117 117 119 120 118 118 118
80 87 90 97 102 103 104 106 108 107 108 109 111 114 113 113 114 115 116 121 125 126 129 132 134 136 135 134 129 126 121 120 117 117 115 115 115 112 111 111 112 112 112 112
89 94 100 103 107 107 108 111 111 111 112 115 117 121 121 122 122 124 127 130 132 134 135 135 131 125 118 116 114 113 114 114 112 109 108 109 108 106 105 105 107 106 105 106
97 102 108 117 116 116 118 122 124 121 120 121 123 125 126 129 133 135 136 135 132 131 128 121 117 112 109 108 107 108 109 108 106 104 103 104 104 103 102 99 96 95 95 96
Wind_Direction
214 217 218 221 222 226 229 233 238 242 245 248 251 255 259 262 264 267 271 275 278 283 285 288 291 293 295 298 300 301 305 307 309 310 311 313 314 312 310 308 306 304 300 296
212 216 219 222 225 226 229 233 237 243 246 249 252 255 258 262 266 269 272 276 279 282 284 287 290 292 295 297 300 303 305 307 309 310 313 314 312 310 310 309 307 306 304 301
212 215 217 221 225 228 231 235 238 243 245 248 254 256 259 262 264 269 273 277 280 282 285 287 291 294 295 297 299 302 305 308 310 312 312 312 310 309 308 308 307 307 306 304
211 215 217 221 225 229 233 237 239 242 247 250 254 256 260 263 266 269 272 276 279 281 285 288 290 292 294 297 301 304 307 308 310 310 311 309 309 308 306 307 307 307 306 305
210 215 219 223 226 229 234 237 241 245 248 250 254 256 261 264 267 269 271 275 277 280 284 287 289 292 295 300 302 305 306 308 308 307 307 307 307 308 309 309 309 311 311 311
210 214 219 223 227 231 236 239 242 245 249 253 254 257 259 264 267 271 274 277 281 284 287 288 290 294 297 300 302 303 304 305 304 304 304 303 306 311 311 314 316 318 321 325
210 214 220 224 229 233 238 242 247 250 254 256 257 258 261 264 268 272 276 279 282 285 286 289 294 296 297 299 301 302 303 302 300 299 297 299 303 306 310 315 321 326 328 331
210 215 219 225 230 235 242 248 251 254 256 257 261 263 268 270 273 275 277 280 282 284 287 292 294 295 297 299 300 302 300 299 296 290 289 293 299 306 304 309 316 319 322 325
212 218 223 229 234 239 245 248 251 254 257 261 264 267 271 272 274 277 279 281 285 288 289 291 293 295 298 298 299 298 298 297 291 285 286 287 290 294 297 300 303 305 307 307
217 222 227 232 236 240 245 250 255 258 262 265 267 269 272 273 275 278 281 286 287 287 289 292 295 296 293 295 294 292 293 289 287 286 285 285 286 287 288 288 290 291 291 291
222 226 230 235 239 244 248 251 256 259 263 265 266 268 270 273 276 280 284 286 286 288 291 294 293 293 294 290 290 289 289 286 283 281 282 283 281 281 281 282 282 282 281 280
227 230 234 238 243 248 252 255 258 261 264 267 268 271 273 276 279 282 284 282 285 287 285 287 288 287 287 287 287 286 286 287 286 284 282 281 280 280 279 278 279 278 277 277
234 238 242 244 248 251 254 257 260 263 266 270 275 275 276 277 280 282 277 278 281 281 283 286 285 285 285 286 285 284 284 285 284 283 282 281 281 280 279 278 277 276 275 273
221 236 242 247 251 255 258 260 263 266 269 270 273 274 274 275 276 278 280 282 283 285 285 285 285 285 286 286 286 286 285 284 284 283 282 281 280 278 276 276 276 276 274 273
272 268 265 260 262 264 266 267 267 267 269 270 271 275 277 281 278 277 280 281 282 283 284 284 284 284 283 283 283 283 283 283 282 281 281 281 280 279 278 276 274 273 272 271
267 267 267 266 266 268 271 271 271 272 274 274 274 276 280 279 279 278 278 279 279 280 281 281 281 280 280 281 281 281 280 279 278 278 278 278 278 277 276 276 275 274 273 270
297 290 287 289 282 278 279 281 278 276 274 275 276 279 279 282 283 283 282 281 281 280 279 280 281 282 282 282 281 280 280 279 278 277 276 275 275 275 275 275 274 273 272 272
309 299 298 299 309 308 292 291 290 289 287 285 284 281 283 283 282 281 283 286 284 284 283 282 282 282 282 283 283 282 280 279 278 278 278 277 276 275 274 273 272 272 271 271
313 312 312 308 309 311 312 307 297 294 296 297 295 292 288 286 285 284 284 283 285 286 287 287 287 287 286 287 286 285 285 283 282 280 278 277 277 276 276 275 274 272 271 270
306 310 310 304 301 306 304 300 299 299 294 290 293 295 294 294 291 286 283 283 283 284 284 284 285 286 287 287 287 287 286 286 286 283 282 281 278 277 276 275 274 273 271 270
296 298 301 303 307 306 304 305 301 292 293 292 290 290 291 292 291 290 289 286 285 286 287 287 286 287 288 287 287 287 288 288 286 284 283 281 279 276 276 276 275 275 272 270
292 294 299 299 300 302 304 306 305 298 296 294 291 290 289 290 290 288 286 286 286 286 286 285 284 284 285 287 287 287 288 288 289 286 284 281 279 278 277 277 277 275 275 273
296 295 299 299 297 300 304 303 305 304 298 297 296 292 290 291 291 291 291 289 289 288 287 288 288 287 287 288 288 289 289 289 287 284 282 281 279 279 279 278 277 276 275 274
294 296 297 298 299 299 301 302 303 302 299 297 297 297 292 291 291 291 292 292 291 291 290 290 290 290 291 291 289 288 286 285 284 284 284 283 282 281 280 280 279 278 277 277
294 292 292 295 297 298 298 299 299 298 298 298 299 300 297 293 291 290 290 290 291 293 294 295 294 292 291 289 287 286 285 284 283 283 282 282 281 280 279 279 280 281 282 281
291 290 291 294 296 296 297 298 299 298 297 297 296 295 296 297 295 293 294 294 296 297 297 295 292 290 288 287 285 285 285 284 284 283 282 281 281 281 282 283 283 283 281 280
Height
10658 10674 10688 10695 10706 10720 10724 10732 10737 10744 10746 10751 10754 10755 10757 10758 10758 10759 10759 10759 10757 10758 10752 10749 10746 10742 10738 10733 10727 10721 10714 10708 10700 10692 10682 10672 10661 10649 10641 10633 10625 10618 10611 10606
10651 10666 10683 10696 10699 10707 10713 10723 10733 10734 10739 10743 10747 10747 10749 10750 10749 10748 10750 10750 10749 10746 10743 10739 10736 10731 10726 10720 10714 10709 10703 10695 10687 10678 10668 10657 10646 10636 10629 10622 10615 10608 10601 10595
10650 10664 10673 10682 10692 10702 10709 10718 10723 10725 10731 10735 10738 10739 10742 10742 10740 10740 10740 10740 10738 10735 10731 10728 10724 10719 10714 10709 10703 10697 10690 10682 10674 10664 10654 10644 10635 10627 10619 10612 10605 10599 10592 10587
10642 10656 10667 10678 10688 10695 10703 10709 10713 10718 10723 10728 10729 10734 10733 10731 10732 10731 10730 10730 10727 10724 10720 10718 10714 10709 10703 10697 10691 10684 10676 10668 10660 10651 10642 10633 10625 10618 10612 10604 10598 10591 10585 10580
10643 10655 10666 10675 10682 10690 10693 10700 10705 10711 10715 10720 10722 10727 10725 10723 10718 10718 10721 10718 10717 10714 10711 10707 10702 10696 10691 10685 10678 10670 10663 10656 10647 10638 10631 10623 10617 10611 10605 10599 10593 10586 10580 10575
10640 10651 10660 10668 10675 10682 10687 10693 10698 10703 10708 10714 10715 10715 10718 10709 10709 10709 10708 10707 10705 10701 10698 10692 10688 10682 10678 10672 10665 10658 10650 10643 10634 10628 10622 10617 10612 10607 10601 10594 10589 10583 10578 10573
10638 10647 10656 10663 10670 10676 10680 10685 10691 10698 10702 10706 10704 10707 10703 10701 10699 10698 10698 10697 10693 10689 10684 10679 10674 10669 10664 10658 10651 10642 10635 10628 10622 10618 10614 10611 10607 10602 10597 10592 10587 10582 10577 10573
10634 10644 10652 10660 10666 10671 10677 10682 10687 10691 10693 10695 10696 10697 10693 10691 10688 10686 10687 10686 10681 10677 10672 10666 10660 10655 10649 10642 10635 10628 10620 10615 10611 10609 10606 10605 10602 10598 10594 10589 10584 10580 10577 10573
10637 10645 10651 10658 10664 10671 10674 10676 10679 10682 10684 10688 10687 10686 10685 10679 10676 10674 10674 10672 10669 10663 10656 10649 10646 10641 10634 10627 10621 10615 10609 10605 10603 10601 10599 10597 10594 10591 10588 10584 10581 10578 10574 10571
10636 10643 10649 10655 10659 10663 10666 10669 10671 10673 10677 10679 10678 10676 10673 10667 10663 10662 10661 10659 10652 10644 10639 10636 10632 10625 10618 10613 10609 10604 10600 10597 10595 10593 10591 10589 10587 10584 10582 10579 10576 10573 10570 10568
10636 10642 10646 10651 10654 10659 10661 10662 10663 10664 10666 10666 10666 10665 10660 10654 10651 10650 10649 10642 10633 10629 10625 10622 10616 10611 10607 10604 10600 10596 10592 10588 10585 10584 10582 10579 10577 10575 10572 10570 10567 10565 10562 10561
10637 10641 10645 10649 10653 10654 10655 10656 10656 10656 10657 10654 10649 10656 10643 10643 10641 10640 10636 10622 10620 10616 10610 10608 10604 10600 10595 10592 10587 10584 10581 10578 10576 10573 10571 10568 10565 10562 10560 10558 10556 10554 10552 10550
10635 10639 10642 10646 10647 10647 10648 10647 10647 10646 10644 10642 10638 10634 10630 10626 10628 10624 10612 10610 10607 10602 10599 10593 10589 10585 10582 10578 10573 10570 10567 10563 10561 10558 10556 10553 10551 10549 10546 10543 10541 10539 10537 10535
10632 10634 10636 10637 10637 10637 10637 10636 10635 10634 10630 10628 10622 10617 10613 10616 10615 10606 10602 10598 10592 10588 10583 10579 10573 10569 10565 10561 10556 10553 10550 10545 10543 10540 10538 10535 10533 10530 10527 10525 10523 10521 10519 10517
10630 10632 10632 10632 10631 10631 10629 10625 10624 10622 10617 10617 10608 10605 10598 10598 10596 10592 10587 10584 10578 10573 10567 10560 10555 10549 10545 10542 10537 10534 10528 10524 10520 10518 10515 10512 10509 10507 10505 10504 10502 10500 10498 10496
10627 10627 10626 10625 10624 10624 10620 10614 10613 10609 10603 10603 10597 10590 10588 10579 10576 10575 10572 10568 10561 10555 10547 10541 10536 10530 10523 10521 10517 10511 10504 10501 10495 10492 10489 10486 10483 10481 10477 10475 10474 10472 10470 10469
10621 10620 10619 10617 10617 10617 10614 10604 10602 10597 10592 10586 10580 10577 10570 10563 10559 10554 10551 10546 10539 10532 10527 10520 10513 10507 10500 10494 10490 10485 10478 10472 10467 10463 10459 10455 10452 10449 10445 10445 10442 10439 10438 10438
10611 10610 10610 10608 10603 10605 10600 10594 10586 10580 10576 10568 10563 10559 10551 10543 10540 10535 10531 10521 10514 10508 10502 10496 10489 10481 10474 10466 10461 10456 10447 10440 10436 10430 10425 10421 10419 10415 10411 10408 10406 10404 10401 10401
10597 10595 10594 10591 10589 10588 10585 10580 10571 10564 10562 10551 10544 10540 10534 10523 10517 10511 10510 10496 10490 10482 10475 10468 10460 10452 10444 10436 10431 10423 10414 10407 10401 10396 10391 10386 10380 10378 10374 10369 10366 10364 10362 10361
10581 10578 10577 10573 10571 10570 10568 10558 10550 10546 10545 10533 10527 10520 10510 10501 10494 10486 10485 10476 10467 10458 10449 10440 10431 10422 10414 10406 10398 10389 10382 10372 10362 10357 10353 10346 10340 10336 10333 10327 10322 10319 10316 10317
10564 10559 10554 10548 10546 10549 10544 10535 10527 10521 10517 10512 10503 10496 10486 10476 10469 10461 10449 10444 10437 10429 10420 10411 10402 10393 10381 10371 10363 10353 10342 10331 10323 10318 10311 10303 10295 10292 10288 10284 10279 10275 10272 10272
10549 10542 10538 10529 10522 10523 10519 10509 10501 10495 10489 10483 10475 10466 10459 10450 10440 10431 10423 10414 10406 10397 10389 10378 10370 10362 10348 10334 10323 10316 10305 10291 10282 10273 10268 10261 10254 10250 10246 10240 10238 10233 10229 10229
10527 10520 10513 10505 10501 10497 10490 10481 10473 10467 10458 10450 10443 10435 10426 10416 10407 10399 10390 10381 10372 10362 10352 10340 10331 10323 10311 10296 10281 10273 10262 10251 10239 10231 10227 10222 10217 10214 10207 10199 10193 10191 10186 10185
10504 10495 10489 10477 10469 10470 10462 10449 10442 10435 10426 10418 10410 10398 10388 10380 10370 10361 10353 10344 10336 10325 10314 10301 10290 10281 10272 10255 10242 10227 10217 10207 10200 10196 10191 10185 10179 10175 10169 10163 10155 10150 10147 10146
10478 10469 10460 10456 10446 10438 10435 10425 10414 10407 10397 10386 10374 10363 10352 10343 10333 10324 10316 10306 10296 10287 10273 10260 10246 10236 10225 10213 10203 10190 10177 10167 10164 10163 10158 10149 10142 10136 10131 10126 10120 10116 10112 10106
10451 10440 10431 10427 10417 10405 10401 10390 10381 10371 10361 10351 10341 10328 10318 10308 10298 10286 10276 10265 10256 10245 10230 10215 10203 10193 10185 10175 10167 10154 10141 10134 10131 10128 10124 10114 10106 10100 10096 10094 10093 10087 10083 10077